• In Belgium
  • List of Countries
  • For 7 days
  • Water Temperature
  • Satellite Maps
  • Weather Map
  • Weather Widgets
  • user-avatar
    Login

    Hourly Weather Yeghegnadzor

    Today, 22 July, Sunday

    Time Temperature Precipitation Wind Pressure Humidity
    00:00 +22°C° 0.1 mm 3 mps 650 mmHg 78%
    01:00 +21°C° 0 mm 3 mps 650 mmHg 78%
    02:00 +21°C° 0 mm 3 mps 650 mmHg 79%
    03:00 +20°C° 0 mm 3 mps 650 mmHg 80%
    04:00 +21°C° 0 mm 3 mps 650 mmHg 78%
    05:00 +21°C° 0 mm 3 mps 650 mmHg 77%
    06:00 +21°C° 0 mm 3 mps 651 mmHg 76%
    07:00 +24°C° 0 mm 2 mps 651 mmHg 68%
    08:00 +25°C° 0 mm 2 mps 651 mmHg 60%
    09:00 +27°C° 0 mm 2 mps 652 mmHg 52%
    10:00 +28°C° 0.2 mm 2 mps 652 mmHg 48%
    11:00 +29°C° 0.2 mm 3 mps 652 mmHg 44%
    12:00 +30°C° 0.2 mm 3 mps 651 mmHg 40%
    13:00 +30°C° 0.3 mm 3 mps 651 mmHg 40%
    14:00 +30°C° 0.3 mm 3 mps 651 mmHg 39%
    15:00 +31°C° 0.3 mm 3 mps 651 mmHg 39%
    16:00 +30°C° 0.2 mm 3 mps 650 mmHg 42%
    17:00 +29°C° 0.2 mm 3 mps 650 mmHg 45%
    18:00 +28°C° 0.2 mm 4 mps 650 mmHg 48%
    19:00 +27°C° 0.5 mm 3 mps 650 mmHg 55%
    20:00 +25°C° 0.5 mm 3 mps 650 mmHg 62%
    21:00 +24°C° 0.5 mm 2 mps 650 mmHg 68%
    22:00 +23°C° 0.5 mm 2 mps 650 mmHg 71%
    23:00 +21°C° 0.5 mm 2 mps 650 mmHg 73%

    Tomorrow, 23 July, Monday

    Time Temperature Precipitation Wind Pressure Humidity
    00:00 +21°C° 0.5 mm 2 mps 650 mmHg 75%
    01:00 +20°C° 0.1 mm 2 mps 650 mmHg 77%
    02:00 +20°C° 0.1 mm 2 mps 650 mmHg 78%
    03:00 +19°C° 0.1 mm 2 mps 649 mmHg 79%
    04:00 +20°C° 0 mm 2 mps 649 mmHg 77%
    05:00 +20°C° 0 mm 2 mps 650 mmHg 76%
    06:00 +20°C° 0 mm 2 mps 650 mmHg 74%
    07:00 +23°C° 0.4 mm 2 mps 650 mmHg 66%
    08:00 +25°C° 0.4 mm 2 mps 650 mmHg 57%
    09:00 +27°C° 0.4 mm 2 mps 651 mmHg 49%
    10:00 +28°C° 0.3 mm 2 mps 650 mmHg 45%
    11:00 +29°C° 0.3 mm 2 mps 650 mmHg 42%
    12:00 +30°C° 0.3 mm 3 mps 650 mmHg 38%
    13:00 +30°C° 0.3 mm 3 mps 650 mmHg 38%
    14:00 +31°C° 0.3 mm 3 mps 649 mmHg 38%
    15:00 +31°C° 0.3 mm 3 mps 649 mmHg 37%
    16:00 +29°C° 0.5 mm 3 mps 649 mmHg 43%
    17:00 +28°C° 0.5 mm 3 mps 648 mmHg 50%
    18:00 +26°C° 0.5 mm 3 mps 648 mmHg 56%
    19:00 +26°C° 0.8 mm 2 mps 648 mmHg 60%
    20:00 +25°C° 0.8 mm 2 mps 649 mmHg 64%
    21:00 +24°C° 0.8 mm 2 mps 649 mmHg 68%
    22:00 +23°C° 0.1 mm 2 mps 649 mmHg 69%
    23:00 +22°C° 0.1 mm 1 mps 649 mmHg 70%

    Day after tomorrow, 24 July, Tuesday

    Time Temperature Precipitation Wind Pressure Humidity
    00:00 +22°C° 0.1 mm 1 mps 649 mmHg 71%
    01:00 +21°C° 0 mm 1 mps 649 mmHg 71%
    02:00 +21°C° 0 mm 1 mps 649 mmHg 71%
    03:00 +21°C° 0 mm 1 mps 649 mmHg 71%
    04:00 +21°C° 0 mm 1 mps 649 mmHg 69%
    05:00 +22°C° 0 mm 1 mps 649 mmHg 66%
    06:00 +22°C° 0 mm 1 mps 650 mmHg 63%
    07:00 +24°C° 0 mm 1 mps 650 mmHg 55%
    08:00 +26°C° 0 mm 2 mps 650 mmHg 47%
    09:00 +28°C° 0 mm 2 mps 651 mmHg 39%
    10:00 +30°C° 0 mm 2 mps 651 mmHg 35%
    11:00 +31°C° 0 mm 2 mps 651 mmHg 32%
    12:00 +33°C° 0 mm 3 mps 651 mmHg 29%
    13:00 +34°C° 0 mm 3 mps 651 mmHg 27%
    14:00 +34°C° 0 mm 3 mps 651 mmHg 26%
    15:00 +35°C° 0 mm 3 mps 650 mmHg 24%
    16:00 +34°C° 0 mm 2 mps 650 mmHg 27%
    17:00 +34°C° 0 mm 2 mps 650 mmHg 30%
    18:00 +32°C° 0 mm 1 mps 650 mmHg 33%
    19:00 +30°C° 0 mm 2 mps 650 mmHg 39%
    20:00 +28°C° 0 mm 2 mps 650 mmHg 46%
    21:00 +26°C° 0 mm 2 mps 650 mmHg 52%
    22:00 +25°C° 0 mm 2 mps 651 mmHg 52%
    23:00 +25°C° 0 mm 2 mps 651 mmHg 53%

    25 July, Wednesday

    Time Temperature Precipitation Wind Pressure Humidity
    00:00 +24°C° 0 mm 2 mps 651 mmHg 53%
    01:00 +24°C° 0 mm 2 mps 651 mmHg 50%
    02:00 +24°C° 0 mm 2 mps 651 mmHg 48%
    03:00 +24°C° 0 mm 2 mps 651 mmHg 45%
    04:00 +24°C° 0 mm 2 mps 651 mmHg 44%
    05:00 +25°C° 0 mm 2 mps 651 mmHg 43%
    06:00 +25°C° 0 mm 2 mps 651 mmHg 41%
    07:00 +27°C° 0 mm 2 mps 652 mmHg 37%
    08:00 +30°C° 0 mm 2 mps 652 mmHg 33%
    09:00 +32°C° 0 mm 2 mps 653 mmHg 29%
    10:00 +34°C° 0 mm 2 mps 653 mmHg 27%
    11:00 +36°C° 0 mm 3 mps 653 mmHg 24%
    12:00 +37°C° 0 mm 3 mps 653 mmHg 22%
    13:00 +37°C° 0 mm 4 mps 652 mmHg 22%
    14:00 +38°C° 0 mm 4 mps 652 mmHg 21%
    15:00 +38°C° 0 mm 4 mps 652 mmHg 21%
    16:00 +38°C° 0 mm 4 mps 651 mmHg 24%
    17:00 +37°C° 0 mm 3 mps 651 mmHg 27%
    18:00 +36°C° 0 mm 2 mps 651 mmHg 30%
    19:00 +34°C° 0 mm 3 mps 651 mmHg 38%
    20:00 +30°C° 0 mm 3 mps 651 mmHg 46%
    21:00 +28°C° 0 mm 3 mps 650 mmHg 54%
    22:00 +27°C° 0 mm 3 mps 650 mmHg 55%
    23:00 +27°C° 0 mm 3 mps 650 mmHg 56%

    26 July, Thursday

    Time Temperature Precipitation Wind Pressure Humidity
    00:00 +26°C° 0 mm 3 mps 650 mmHg 57%
    01:00 +26°C° 0 mm 3 mps 650 mmHg 56%
    02:00 +26°C° 0 mm 2 mps 650 mmHg 55%
    03:00 +25°C° 0 mm 2 mps 650 mmHg 54%
    04:00 +26°C° 0 mm 2 mps 651 mmHg 52%
    05:00 +26°C° 0 mm 2 mps 651 mmHg 50%
    06:00 +27°C° 0 mm 2 mps 651 mmHg 48%
    07:00 +29°C° 0 mm 2 mps 652 mmHg 42%
    08:00 +31°C° 0 mm 2 mps 652 mmHg 36%
    09:00 +35°C° 0 mm 2 mps 653 mmHg 31%
    10:00 +36°C° 0 mm 2 mps 653 mmHg 29%
    11:00 +37°C° 0 mm 3 mps 653 mmHg 27%
    12:00 +40°C° 0 mm 4 mps 653 mmHg 25%
    13:00 +40°C° 0 mm 4 mps 652 mmHg 25%
    14:00 +40°C° 0 mm 4 mps 652 mmHg 25%
    15:00 +40°C° 0 mm 4 mps 652 mmHg 26%
    16:00 +38°C° 0.1 mm 4 mps 651 mmHg 30%
    17:00 +37°C° 0.1 mm 4 mps 651 mmHg 34%
    18:00 +36°C° 0.1 mm 4 mps 651 mmHg 38%
    19:00 +34°C° 0 mm 4 mps 651 mmHg 46%
    20:00 +32°C° 0 mm 4 mps 651 mmHg 54%
    21:00 +28°C° 0 mm 3 mps 651 mmHg 62%
    22:00 +28°C° 0 mm 3 mps 651 mmHg 63%
    23:00 +27°C° 0 mm 3 mps 651 mmHg 64%

    27 July, Friday

    Time Temperature Precipitation Wind Pressure Humidity
    00:00 +26°C° 0 mm 3 mps 651 mmHg 65%
    01:00 +26°C° 0 mm 3 mps 651 mmHg 65%
    02:00 +26°C° 0 mm 3 mps 651 mmHg 64%
    03:00 +25°C° 0 mm 2 mps 651 mmHg 64%
    04:00 +26°C° 0 mm 2 mps 651 mmHg 62%
    05:00 +26°C° 0 mm 2 mps 652 mmHg 59%
    06:00 +26°C° 0 mm 2 mps 652 mmHg 57%
    07:00 +28°C° 0 mm 2 mps 652 mmHg 50%
    08:00 +31°C° 0 mm 2 mps 653 mmHg 44%
    09:00 +34°C° 0 mm 2 mps 653 mmHg 37%
    10:00 +35°C° 0 mm 2 mps 653 mmHg 34%
    11:00 +36°C° 0 mm 3 mps 653 mmHg 32%
    12:00 +38°C° 0 mm 3 mps 653 mmHg 29%
    13:00 +38°C° 0 mm 3 mps 653 mmHg 29%
    14:00 +38°C° 0 mm 4 mps 652 mmHg 29%
    15:00 +38°C° 0 mm 4 mps 652 mmHg 29%
    16:00 +37°C° 0 mm 4 mps 652 mmHg 33%
    17:00 +36°C° 0 mm 4 mps 651 mmHg 36%
    18:00 +35°C° 0 mm 5 mps 651 mmHg 39%
    19:00 +33°C° 0 mm 4 mps 651 mmHg 45%
    20:00 +29°C° 0 mm 4 mps 651 mmHg 51%
    21:00 +27°C° 0 mm 3 mps 651 mmHg 57%
    22:00 +27°C° 0 mm 3 mps 651 mmHg 55%
    23:00 +26°C° 0 mm 3 mps 651 mmHg 54%
    Show more